This is the latest recevied weather packets stored in our database for station/object K5NWZ. If no packets are shown the sender has not sent any weather packets the latest 10 day(s).
| Time | Temp. | Humidity | Pressure | Rain* | Wind** | Luminosity | Snow |
|---|---|---|---|---|---|---|---|
| 1777766646 | 21.67° C | 13% | 1024.7 hPa | 0 mm | - | 151 W/m² | - |
| 1777766343 | 22.22° C | 12% | 1024.9 hPa | 0 mm | - | 155 W/m² | - |
| 1777766040 | 22.22° C | 12% | 1024.8 hPa | 0 mm | - | 167 W/m² | - |
| 1777765737 | 22.22° C | 12% | 1024.9 hPa | 0 mm | - | 183 W/m² | - |
| 1777765433 | 22.22° C | 13% | 1024.7 hPa | 0 mm | - | 206 W/m² | - |
| 1777765130 | 21.67° C | 13% | 1024.9 hPa | 0 mm | - | 231 W/m² | - |
| 1777764826 | 21.67° C | 12% | 1024.9 hPa | 0 mm | - | 253 W/m² | - |
| 1777764523 | 21.67° C | 13% | 1025.1 hPa | 0 mm | - | 269 W/m² | - |
| 1777764220 | 22.78° C | 13% | 1025.1 hPa | 0 mm | - | 283 W/m² | - |
| 1777763916 | 21.67° C | 13% | 1025.1 hPa | 0 mm | - | 297 W/m² | - |
| 1777763614 | 21.67° C | 13% | 1025.2 hPa | 0 mm | - | 312 W/m² | - |
| 1777763312 | 22.22° C | 13% | 1025.3 hPa | 0 mm | - | 324 W/m² | - |
| 1777763010 | 21.67° C | 13% | 1025.1 hPa | 0 mm | - | 340 W/m² | - |
| 1777762706 | 21.67° C | 13% | 1025.2 hPa | 0 mm | - | 352 W/m² | - |
| 1777762403 | 22.22° C | 13% | 1025.1 hPa | 0 mm | - | 367 W/m² | - |
| 1777762100 | 21.67° C | 13% | 1025.1 hPa | 0 mm | - | 380 W/m² | - |
| 1777761796 | 21.11° C | 14% | 1025.3 hPa | 0 mm | - | 395 W/m² | - |
| 1777761494 | 21.67° C | 13% | 1025.2 hPa | 0 mm | - | 408 W/m² | - |
| 1777761191 | 21.67° C | 13% | 1025.3 hPa | 0 mm | - | 422 W/m² | - |
| 1777760889 | 22.22° C | 13% | 1025.4 hPa | 0 mm | - | 434 W/m² | - |
| 1777760586 | 21.67° C | 14% | 1025.4 hPa | 0 mm | - | 448 W/m² | - |
| 1777760281 | 21.67° C | 13% | 1025.5 hPa | 0 mm | - | 462 W/m² | - |
| 1777759977 | 21.67° C | 13% | 1025.4 hPa | 0 mm | - | 476 W/m² | - |
| 1777759675 | 21.67° C | 14% | 1025.8 hPa | 0 mm | - | 490 W/m² | - |
| 1777759371 | 21.67° C | 14% | 1025.9 hPa | 0 mm | - | 506 W/m² | - |
* Rain latest hour (hover to see other rain measurements)
** Current wind speed in m/s (hover to see current wind gust speed)